Mekoryuk, AK

3:41 PM AKDT on May 27, 2017 (GMT -0800)
Mekoryuk

Weather History for PAMY - February, 2014

Change the Weather History Date:

Sunday, February 2, 2014

  Actual Average Record
Temperature  
Mean Temperature 24 °F -  
Max Temperature 26 °F 14 °F 35 °F (2007)
Min Temperature 23 °F 5 °F -22 °F (1999)
Degree Days  
Heating Degree Days 40    
Moisture  
Dew Point 18 °F    
Average Humidity 71    
Maximum Humidity 80    
Minimum Humidity 64    
Precipitation  
Precipitation 0.00 in - - ()
Sea Level Pressure  
Sea Level Pressure 30.57 in    
Wind  
Wind Speed 15 mph (NE)    
Max Wind Speed 30 mph    
Max Gust Speed 34 mph    
Visibility 10 miles    
Events      
Averages and records for this station are not official NWS values.
T = Trace of Precipitation, MM = Missing Value Source: NWS Daily Summary

Daily Weather History Graph

Daily Weather History Graph

Search for Another Location

Airport or City:

Trip Planner

Search our weather history database for the weather conditions in past years. The results will help you decide how hot, cold, wet, or windy it might be!

Date:

Astronomy

Feb. 02, 2014 Rise Set
Actual Time 10:17 AM AKST 6:20 PM AKST
Civil Twilight 9:30 AM AKST 7:08 PM AKST
Nautical Twilight 8:38 AM AKST 7:59 PM AKST
Astronomical Twilight 7:50 AM AKST 8:48 PM AKST
Moon 10:44 AM AKST (2/2) 11:35 PM AKST (2/2)
Length of Visible Light 9h 38m
Length of Day
8h 03m
Waxing Crescent, 12% of the Moon is Illuminated
Feb 2
Waxing Crescent
Feb 6
First Quarter
Feb 14
Full
Feb 22
Last Quarter
Feb 28
New

Hourly Weather History & Observations

Time (AKST) Temp. Windchill Dew Point Humidity Pressure Visibility Wind Dir Wind Speed Gust Speed Precip Events Conditions
12:16 AM 24.8 °F 13.4 °F 17.6 °F 74% 30.70 in 10.0 mi North 12.7 mph - N/A   Clear
12:36 AM 24.8 °F 12.9 °F 17.6 °F 74% 30.70 in 10.0 mi North 13.8 mph - N/A   Clear
12:56 AM 26.6 °F 16.2 °F 17.6 °F 69% 30.70 in 10.0 mi NNE 11.5 mph - N/A   Clear
1:16 AM 26.6 °F 16.8 °F 15.8 °F 64% 30.70 in 10.0 mi NNE 10.4 mph - N/A   Clear
1:36 AM 26.6 °F 16.8 °F 15.8 °F 64% 30.70 in 10.0 mi NE 10.4 mph - N/A   Clear
1:56 AM 24.8 °F 14.6 °F 15.8 °F 69% 30.70 in 10.0 mi NE 10.4 mph - N/A   Clear
2:16 AM 24.8 °F 16.1 °F 15.8 °F 69% 30.70 in 10.0 mi NNE 8.1 mph - N/A   Clear
2:36 AM 24.8 °F 14.6 °F 15.8 °F 69% 30.70 in 10.0 mi NNE 10.4 mph - N/A   Clear
2:56 AM 24.8 °F 14.6 °F 17.6 °F 74% 30.70 in 10.0 mi NNE 10.4 mph - N/A   Clear
3:16 AM 26.6 °F 15.2 °F 15.8 °F 64% 30.70 in 10.0 mi NE 13.8 mph - N/A   Clear
3:36 AM 26.6 °F 15.2 °F 15.8 °F 64% 30.70 in 10.0 mi NE 13.8 mph - N/A   Clear
3:56 AM 26.6 °F 15.7 °F 15.8 °F 64% 30.70 in 10.0 mi NNE 12.7 mph - N/A   Clear
4:16 AM 26.6 °F 15.2 °F 15.8 °F 64% 30.69 in 10.0 mi NE 13.8 mph - N/A   Clear
4:36 AM 26.6 °F 14.3 °F 15.8 °F 64% 30.69 in 10.0 mi NE 16.1 mph - N/A   Clear
4:56 AM 26.6 °F 13.8 °F 15.8 °F 64% 30.69 in 10.0 mi NE 17.3 mph - N/A   Clear
5:16 AM 26.6 °F 15.2 °F 15.8 °F 64% 30.68 in 10.0 mi NNE 13.8 mph - N/A   Clear
5:36 AM 26.6 °F 13.8 °F 15.8 °F 64% 30.67 in 10.0 mi NNE 17.3 mph - N/A   Clear
5:56 AM 26.6 °F 16.2 °F 17.6 °F 69% 30.67 in 10.0 mi NE 11.5 mph - N/A   Clear
6:16 AM 24.8 °F 12.4 °F 17.6 °F 74% 30.67 in 10.0 mi NNE 15.0 mph - N/A   Clear
6:36 AM 26.6 °F 16.8 °F 17.6 °F 69% 30.67 in 10.0 mi NE 10.4 mph - N/A   Mostly Cloudy
6:56 AM 26.6 °F 16.8 °F 17.6 °F 69% 30.67 in 10.0 mi NE 10.4 mph - N/A   Overcast
7:16 AM 26.6 °F 14.7 °F 19.4 °F 74% 30.65 in 10.0 mi NE 15.0 mph - N/A   Overcast
7:36 AM 26.6 °F 16.2 °F 19.4 °F 74% 30.66 in 10.0 mi NE 11.5 mph - N/A   Overcast
7:56 AM 26.6 °F 14.7 °F 19.4 °F 74% 30.65 in 10.0 mi NE 15.0 mph - N/A   Overcast
8:16 AM 26.6 °F 15.2 °F 19.4 °F 74% 30.65 in 10.0 mi NE 13.8 mph - N/A   Overcast
8:36 AM 26.6 °F 14.7 °F 19.4 °F 74% 30.65 in 4.0 mi NNE 15.0 mph 20.7 mph N/A   Overcast
8:56 AM 26.6 °F 15.7 °F 19.4 °F 74% 30.65 in 2.0 mi NE 12.7 mph 17.3 mph N/A   Overcast
9:16 AM 26.6 °F 15.7 °F 19.4 °F 74% 30.64 in 10.0 mi NE 12.7 mph - N/A   Overcast
9:36 AM 26.6 °F 14.3 °F 19.4 °F 74% 30.64 in 10.0 mi NNE 16.1 mph 19.6 mph N/A   Overcast
9:56 AM 26.6 °F 14.3 °F 19.4 °F 74% 30.64 in 10.0 mi NE 16.1 mph 19.6 mph N/A   Overcast
10:16 AM 26.6 °F 13.1 °F 19.4 °F 74% 30.63 in 10.0 mi NE 19.6 mph 24.2 mph N/A   Overcast
10:36 AM 26.6 °F 14.3 °F 21.2 °F 80% 30.63 in 10.0 mi NNE 16.1 mph - N/A   Overcast
10:56 AM 26.6 °F 12.7 °F 21.2 °F 80% 30.62 in 0.8 mi NNE 20.7 mph - N/A   Overcast
11:16 AM 26.6 °F 13.1 °F 21.2 °F 80% 30.62 in 9.0 mi NNE 19.6 mph 23.0 mph N/A   Overcast
11:36 AM 26.6 °F 14.3 °F 21.2 °F 80% 30.62 in 5.0 mi NE 16.1 mph - N/A   Overcast
11:56 AM 26.6 °F 13.1 °F 19.4 °F 74% 30.62 in 10.0 mi NNE 19.6 mph - N/A   Overcast
12:16 PM 26.6 °F 13.1 °F 19.4 °F 74% 30.62 in 10.0 mi NNE 19.6 mph 24.2 mph N/A   Overcast
12:36 PM 26.6 °F 12.0 °F 21.2 °F 80% 30.61 in 10.0 mi NNE 23.0 mph - N/A   Overcast
12:56 PM 26.6 °F 12.7 °F 19.4 °F 74% 30.61 in 10.0 mi NE 20.7 mph - N/A   Overcast
1:16 PM 26.6 °F 11.7 °F 19.4 °F 74% 30.59 in 10.0 mi NNE 24.2 mph - N/A   Overcast
1:36 PM 26.6 °F 11.4 °F 19.4 °F 74% 30.58 in 10.0 mi NNE 25.3 mph 32.2 mph N/A   Overcast
1:56 PM 26.6 °F 11.4 °F 19.4 °F 74% 30.57 in 10.0 mi NNE 25.3 mph 31.1 mph N/A   Overcast
2:16 PM 26.6 °F 11.4 °F 19.4 °F 74% 30.55 in 10.0 mi NNE 25.3 mph 33.4 mph N/A   Overcast
2:36 PM 26.6 °F 10.8 °F 19.4 °F 74% 30.55 in 10.0 mi NNE 27.6 mph 32.2 mph N/A   Overcast
2:56 PM 26.6 °F 11.4 °F 19.4 °F 74% 30.54 in 10.0 mi NNE 25.3 mph - N/A   Overcast
3:16 PM 26.6 °F 11.1 °F 19.4 °F 74% 30.53 in 10.0 mi NNE 26.5 mph 31.1 mph N/A   Mostly Cloudy
3:36 PM 26.6 °F 11.4 °F 19.4 °F 74% 30.52 in 10.0 mi NNE 25.3 mph 32.2 mph N/A   Mostly Cloudy
3:56 PM 26.6 °F 11.7 °F 19.4 °F 74% 30.52 in 10.0 mi NNE 24.2 mph 31.1 mph N/A   Mostly Cloudy
4:16 PM 26.6 °F 11.4 °F 19.4 °F 74% 30.52 in 10.0 mi NNE 25.3 mph 32.2 mph N/A   Scattered Clouds
4:36 PM 26.6 °F 12.7 °F 19.4 °F 74% 30.51 in 10.0 mi NNE 20.7 mph - N/A   Scattered Clouds
4:56 PM 26.6 °F 11.7 °F 19.4 °F 74% 30.50 in 10.0 mi NNE 24.2 mph 29.9 mph N/A   Partly Cloudy
5:16 PM 26.6 °F 12.0 °F 19.4 °F 74% 30.49 in 10.0 mi NNE 23.0 mph 33.4 mph N/A   Clear
5:36 PM 26.6 °F 10.3 °F 19.4 °F 74% 30.46 in 10.0 mi NNE 29.9 mph 34.5 mph N/A   Clear
5:56 PM 26.6 °F 12.4 °F 17.6 °F 69% 30.47 in 10.0 mi NNE 21.9 mph 31.1 mph N/A   Clear
6:16 PM 26.6 °F 12.7 °F 17.6 °F 69% 30.47 in 10.0 mi NNE 20.7 mph 24.2 mph N/A   Clear
6:36 PM 26.6 °F 13.1 °F 17.6 °F 69% 30.47 in 10.0 mi NE 19.6 mph - N/A   Clear
6:56 PM 26.6 °F 15.2 °F 15.8 °F 64% 30.46 in 10.0 mi NE 13.8 mph 17.3 mph N/A   Clear
7:16 PM 26.6 °F 13.8 °F 15.8 °F 64% 30.45 in 10.0 mi NE 17.3 mph - N/A   Clear
7:36 PM 24.8 °F 11.5 °F 15.8 °F 69% 30.45 in 10.0 mi NE 17.3 mph - N/A   Clear
7:56 PM 24.8 °F 10.7 °F 15.8 °F 69% 30.44 in 10.0 mi NE 19.6 mph 23.0 mph N/A   Clear
8:16 PM 24.8 °F 11.9 °F 15.8 °F 69% 30.44 in 10.0 mi NE 16.1 mph 19.6 mph N/A   Mostly Cloudy
8:36 PM 24.8 °F 14.0 °F 15.8 °F 69% 30.44 in 10.0 mi ENE 11.5 mph - N/A   Partly Cloudy
8:56 PM 24.8 °F 10.3 °F 15.8 °F 69% 30.42 in 10.0 mi NE 20.7 mph - N/A   Mostly Cloudy
9:16 PM 24.8 °F 13.4 °F 15.8 °F 69% 30.42 in 10.0 mi NE 12.7 mph - N/A   Scattered Clouds
9:36 PM 24.8 °F 12.9 °F 15.8 °F 69% 30.41 in 10.0 mi ENE 13.8 mph - N/A   Clear
9:56 PM 24.8 °F 11.9 °F 14.0 °F 64% 30.40 in 10.0 mi NE 16.1 mph - N/A   Partly Cloudy
10:16 PM 23.0 °F 9.6 °F 14.0 °F 68% 30.39 in 10.0 mi NE 16.1 mph 19.6 mph N/A   Scattered Clouds
10:36 PM 23.0 °F 9.6 °F 15.8 °F 74% 30.38 in 10.0 mi NE 16.1 mph - N/A   Scattered Clouds
10:56 PM 23.0 °F 9.6 °F 15.8 °F 74% 30.37 in 10.0 mi NE 16.1 mph - N/A   Mostly Cloudy
11:16 PM 23.0 °F 8.0 °F 15.8 °F 74% 30.35 in 10.0 mi NE 20.7 mph - N/A   Scattered Clouds
11:36 PM 23.0 °F 10.6 °F 15.8 °F 74% 30.36 in 10.0 mi ENE 13.8 mph - N/A   Mostly Cloudy
11:56 PM 24.8 °F 12.9 °F 15.8 °F 69% 30.35 in 10.0 mi NE 13.8 mph - N/A   Overcast